Flag for U.S.A. Weather past 2 weeks in Pembroke Pines, Florida, U.S.A.

Now
77 °F

Passing clouds.


Feels Like: 78 °F
Forecast: 74 / 84 °F
Wind: No wind

Location: North Perry Airport

Current Time: Sep 20, 2014 at 4:46:10 AM

Latest Report: Sep 20, 2014 at 3:53 AM


Visibility: 10 mi

Pressure: 29.91 "Hg

Humidity: 96%

Dew point: 76 °F

Location of Pembroke PinesLocation

Historic Weather in Pembroke Pines — Graph

°F

Pembroke Pines temperature yesterday

Maximum temperature yesterday: 85 °F (at 10:53 AM)
Minimum temperature yesterday: 75 °F (at 4:53 PM)
Average temperature yesterday: 79 °F

Past Weeks' High & Low Weather Summary

 TemperatureHumidityPressure
High92 °F (Sep 5, 12:53 PM)100% (Sep 13, 3:53 AM)30.17 "Hg (Sep 13, 3:53 AM)
Low73 °F (Sep 13, 3:53 AM)50% (Sep 17, 2:53 PM)29.88 "Hg (Sep 18, 5:53 PM)
Average81 °F79%30.02 "Hg
* Reported Sep 5 2:53 AM — Sep 20 2:53 AM, Pembroke Pines, Weather by CustomWeather, © 2014

Note: Actual official high and low records may vary slightly from our data, if they occured in-between our weather recording intervals... More about our weather records

Advertising

Pembroke Pines weather history for previous 24 hours

 ConditionsComfort  
Time TempWeatherWind HumidityBarometerVisibility
2:53 AM
Sep 20
77 °FLight rain. Passing clouds.No wind96%29.92 "Hg10 mi
1:53 AM77 °FClear.No wind96%29.94 "Hg10 mi
12:53 AM77 °FClear.No wind94%29.96 "Hg10 mi
11:53 PM
Sep 19
77 °FClear.No wind94%29.98 "Hg10 mi
10:53 PM77 °FClear.3 mph90%29.98 "Hg10 mi
9:53 PM77 °FClear.No wind94%29.97 "Hg10 mi
8:53 PM77 °FClear.No wind96%29.95 "Hg10 mi
7:53 PM77 °FPartly sunny.No wind94%29.95 "Hg10 mi
6:53 PM77 °FScattered clouds.No wind94%29.94 "Hg10 mi
5:53 PM77 °FPassing clouds.3 mph90%29.92 "Hg10 mi
4:53 PM75 °FLight rain. Mostly cloudy.8 mph96%29.93 "Hg10 mi
3:53 PM78 °FThundershowers. Broken clouds.3 mph87%29.94 "Hg10 mi
2:53 PM77 °FFog.No wind94%29.93 "Hg5 mi
1:53 PM77 °FThunderstorms. Cloudy.8 mph85%29.96 "Hg10 mi
12:53 PM84 °FThundershowers. Mostly cloudy.5 mph74%29.96 "Hg10 mi
11:53 AM84 °FThunderstorms. Broken clouds.10 mph70%29.97 "Hg10 mi
10:53 AM85 °FScattered clouds.3 mph68%29.96 "Hg10 mi
9:53 AM84 °FPassing clouds.9 mph70%29.97 "Hg10 mi
8:53 AM82 °FSunny.3 mph82%29.97 "Hg10 mi
7:53 AM78 °FClear.No wind93%29.95 "Hg10 mi
6:53 AM77 °FClear.No wind94%29.94 "Hg10 mi
5:53 AM78 °FClear.No wind90%29.92 "Hg10 mi
4:53 AM78 °FClear.No wind90%29.91 "Hg10 mi
Weather by CustomWeather, © 2014

See weather overviewHow to use our weather pages